Regional Weather Roundup
Issued by NWS

Home | Current Version | Previous Version | Text Only | Print | Product List | Glossary On
Versions: 1 2 3 4 5 6 7 8 9 10 11 12 13 14 15 16 17 18 19 20 21 22 23 24 25 26 27 28 29 30 31 32 33 34 35 36 37 38 39 40 41 42 43 44 45 46 47 48 49 50
000
ASUS42 KFFC 310110
RWRGA
WEATHER ROUNDUP FOR GEORGIA
NATIONAL WEATHER SERVICE PEACHTREE CITY GA
900 PM EDT THU JUL 30 2015

NOTE: "FAIR" INDICATES FEW OR NO CLOUDS BELOW 12,000 FEET WITH NO
SIGNIFICANT WEATHER AND/OR OBSTRUCTIONS TO VISIBILITY.

* = USE WITH CAUTION. THE STATIONS MARKED WITH AN ASTERISK MAY NOT
REPORT WEATHER SUCH AS PRECIPITATION, FOG, OR THUNDER AND ARE NOT
QUALITY CONTROLLED BY NWS.

THE REMARK "TC" DENOTES TEMPERATURE READING IN DEGREES CELSIUS.

GAZ001>058-310200-
NORTH GEORGIA

CITY           SKY/WX    TMP DP  RH WIND       PRES   REMARKS
ATLANTA        MOCLDY    80  71  74 NW6       29.94R
ATHENS         CLEAR     87  70  56 CALM      29.91R HX  92
CHAMBLEE       PTCLDY    88  70  55 N9        29.94R HX  93
PEACHTREE CITY MOCLDY    79  73  82 SE5       29.94S
ROME           CLEAR     86  71  60 N7        29.94R HX  91
WEST ATLANTA   PTCLDY    83  71  67 SW3       29.93S
GAINESVILLE    CLEAR     86  71  60 NW8       29.97R HX  91
CARTERSVILLE   CLEAR     84  71  65 CALM      29.95R


CITY           SKY/WX    TMP DP  RH WIND       PRES   REMARKS
DALTON*        CLEAR     82  68  61 N12G17    29.97R
LAWRENCEVILLE* PTCLDY    90  68  48 CALM      29.92S HX  93
MARIETTA       MOCLDY    87  73  62 NW6       29.95R HX  95
KENNESAW*      PTCLDY    86  72  62 N7        29.97R HX  92
BLAIRSVILLE*     N/A     80  52  38 CALM      30.03R
$$

GAZ059>098-102>109-310200-
CENTRAL GEORGIA

CITY           SKY/WX    TMP DP  RH WIND       PRES   REMARKS
AUGUSTA-BUSH   LGT RAIN  82  75  79 S5        29.88R
AUGUSTA-DANIEL MOCLDY    85  74  69 CALM      29.91R HX  92
COLUMBUS       CLOUDY    83  73  72 CALM      29.91R
MACON          MOCLDY    81  75  82 SW6       29.91R
ROBINS AFB     MOCLDY    83  75  77 W5        29.91R HX  90


CITY           SKY/WX    TMP DP  RH WIND       PRES   REMARKS
LAGRANGE*      CLOUDY    84  79  84 SE3       29.93S HX  96
SYLVANIA*      PTCLDY    87  77  72 CALM      29.90S HX  98
MILLEDGEVILLE* TSTM      75  72  88 CALM      29.91F
$$

GAZ099>101-110>166-310200-
SOUTH GEORGIA

CITY           SKY/WX    TMP DP  RH WIND       PRES   REMARKS
SAVANNAH       MOCLDY    85  70  60 S7        29.90R
VALDOSTA       PTCLDY    79  78  97 S3        29.93R
ALMA           CLEAR     84  76  76 SW6       29.91R HX  93
ST SIMONS      CLEAR     84  73  69 S3        29.91R HX  90
FT STEWART     PTCLDY    85  74  68 SE6       29.88S HX  93
ALBANY         CLOUDY    83  74  74 SW7       29.93R
HUNTER AFB     PTCLDY    85  77  77 S3        29.88R HX  94
MOODY AFB      PTCLDY    80  75  85 CALM      29.91S
BRUNSWICK      CLEAR     86  73  66 S3        29.92R HX  93


CITY           SKY/WX    TMP DP  RH WIND       PRES   REMARKS
BAINBRIDGE*    PTCLDY    81  77  89 N5        29.93R
MOULTRIE*      CLOUDY    79  77  94 SW3       29.93S
VIDALIA*       PTCLDY    86  73  66 SW3       29.91R HAZE    HX  93
WAYCROSS*      CLEAR     85  78  80 W6        29.92R HX  96
DOUGLAS*       PTCLDY    82  73  74 SW7       29.94R
$$


USA.gov is the U.S. government's official web portal to all federal, state and local government web resources and services.